Location: Санкт-Петербург
(59.9358°N, 30.3401°E)
Time: 18:21:19
(UTC+03:00)

ISS - Pass Details

Date: 28 January 2021
Orbit: 417 x 422 km, 51.6° (Epoch: 18 May)

Event Time Altitude Azimuth Distance (km) Brightness Sun altitude
Rises 20:35:42 0° 259° (W) 2,377 1.2 -26.0°
Reaches altitude 10° 20:38:21 10° 237° (WSW) 1,512 -0.4 -26.3°
Enters shadow 20:39:16 14° 223° (SW) 1,310 -0.9 -26.4°
